RH
79 79 85 88 91 92 92 90 85 80 87 92 91 92 93 94 92 91 89 88 91 86 84 81 79 72 72 77 81 72 74 76 73 71 67 75 88 76 72 79 79 79 80
70 74 84 84 82 88 96 90 89 85 84 86 91 90 92 93 91 92 92 88 92 90 86 88 85 78 78 74 74 80 78 72 71 70 83 86 82 85 72 84 75 68 73
71 74 76 81 82 83 87 94 92 91 84 85 91 94 93 93 93 93 90 90 89 88 86 87 86 87 88 85 80 79 81 79 80 72 65 88 82 86 90 88 85 76 71
74 76 79 80 80 80 78 82 95 94 92 89 86 85 92 93 92 91 91 91 90 88 88 87 86 87 86 87 88 88 89 92 92 82 76 82 87 88 80 80 93 84 75
77 80 82 81 82 82 85 83 78 91 92 90 90 89 84 89 91 92 90 90 90 92 90 88 87 86 90 87 84 88 89 92 88 87 85 82 84 96 85 87 77 78 80
80 82 80 80 81 84 86 91 89 88 93 93 92 90 91 87 96 100 97 91 90 90 92 89 88 96 94 96 97 94 88 91 91 89 86 85 73 76 70 78 82 94 91
79 76 78 79 80 82 82 90 91 88 87 94 94 92 93 90 99 100 100 93 92 93 91 90 89 85 97 88 97 98 98 98 92 84 88 86 78 71 77 85 80 78 74
80 78 77 80 82 83 86 93 95 93 88 92 94 93 92 90 100 100 100 97 92 91 91 91 92 90 89 90 90 91 93 89 92 91 84 79 74 68 78 83 78 76 72
85 84 81 84 88 88 91 93 94 96 92 94 93 94 95 92 100 100 100 98 97 94 90 91 91 91 96 100 94 94 91 90 90 96 93 89 89 88 78 82 92 93 92
88 88 86 87 89 92 95 97 97 97 99 96 96 96 98 96 100 100 99 98 96 96 93 93 100 94 100 100 96 92 96 90 86 86 92 95 94 84 94 85 83 93 90
87 86 87 86 87 88 91 90 92 94 93 95 96 98 97 98 96 99 100 97 96 95 97 95 93 100 100 100 100 92 93 86 91 91 88 89 88 87 83 87 83 86 91
89 88 88 86 84 83 89 89 89 90 91 92 91 93 90 89 94 93 94 99 99 97 96 94 95 100 100 100 100 100 100 100 95 95 95 96 94 92 86 81 85 84 82
96 93 90 90 86 86 90 93 93 90 92 93 93 95 93 89 91 92 94 96 96 97 94 98 100 100 100 100 100 100 100 98 98 98 97 96 93 88 84 86 85 86 87
100 100 96 95 92 90 89 90 94 97 96 94 94 96 96 94 94 93 93 94 94 96 98 92 100 100 100 100 99 98 94 93 96 97 97 95 92 94 94 89 94 96 97
94 96 97 97 97 96 97 97 95 97 98 97 97 97 97 96 96 94 94 92 93 92 98 97 98 97 97 95 92 90 92 92 94 95 94 95 93 92 94 94 95 96 97
86 87 90 90 92 94 97 97 99 98 98 98 98 98 92 93 91 89 89 89 89 90 90 94 96 97 98 98 98 98 97 97 92 92 93 96 97 96 96 96 96 97 98
86 88 88 88 90 90 90 91 94 88 88 93 93 93 92 94 92 90 87 84 85 84 91 92 94 96 96 96 97 98 98 98 98 98 98 98 98 96 99 99 99 99 100
84 86 89 90 91 91 90 90 90 92 94 91 83 85 87 84 87 91 88 80 85 85 93 96 96 97 97 97 97 98 98 98 98 98 98 99 99 100 100 100 100 100 99
82 83 83 86 86 85 87 89 90 86 88 90 87 85 86 83 83 84 85 92 94 94 94 95 96 97 96 97 98 98 98 98 98 98 98 99 99 98 99 99 99 99 99
86 77 75 69 69 74 76 76 77 78 78 82 90 91 89 85 90 90 90 93 94 94 96 96 96 96 97 97 98 98 98 98 98 99 99 99 99 99 99 99 99 99 99
91 79 72 70 69 68 70 71 76 83 85 88 91 86 88 86 91 90 92 91 94 95 95 95 97 97 97 98 98 98 98 98 99 99 99 100 100 99 100 100 100 99 99
89 74 79 87 76 74 74 72 77 86 89 91 89 83 86 87 90 88 89 88 88 90 93 95 96 96 97 98 98 98 98 98 98 99 99 99 99 99 99 98 98 98 98
85 79 78 72 70 82 93 94 96 95 95 95 94 89 87 91 88 88 91 90 86 86 90 91 94 95 94 94 94 95 97 98 98 98 98 98 98 98 98 98 98 98 98
83 84 88 83 89 97 98 98 97 98 95 95 97 95 93 93 90 89 92 93 86 86 86 93 92 94 93 92 92 91 90 90 89 89 87 89 92 93 93 91 91 89 87
87 88 91 91 95 99 98 98 98 98 98 98 98 97 95 93 84 90 95 93 94 92 90 92 92 92 88 94 93 90 91 91 87 88 84 79 80 80 80 80 80 80 78
89 93 96 98 97 98 99 99 99 99 98 97 99 99 98 96 91 95 93 95 95 94 93 93 92 92 91 92 93 93 91 91 88 89 82 80 80 79 77 75 73 74 74
Wind_Speed
9 10 11 11 12 11 9 10 11 12 10 13 14 14 14 14 14 13 14 13 13 14 13 13 15 14 11 9 7 8 8 7 10 6 6 6 6 9 7 10 10 11 9
11 9 8 10 11 13 9 9 10 12 11 13 13 14 14 15 15 16 16 14 15 16 16 14 16 11 14 14 10 11 10 9 9 14 5 6 9 9 11 11 10 9 10
11 12 11 9 9 10 12 10 9 10 11 10 11 12 13 15 15 16 16 16 16 17 17 16 18 14 15 12 14 13 11 10 9 10 11 4 6 3 3 5 7 9 8
11 11 11 10 9 9 11 11 11 11 12 11 11 14 14 14 14 15 16 16 16 16 17 17 17 16 18 15 14 15 13 12 12 11 11 6 5 4 4 6 6 7 10
12 12 12 11 10 10 10 10 13 13 12 13 12 12 14 13 12 15 16 17 17 17 17 17 18 19 21 19 12 15 14 13 11 12 12 10 8 4 9 6 10 7 10
12 12 12 11 11 10 11 8 10 14 13 12 13 14 14 11 15 20 18 16 17 17 17 18 17 18 20 20 22 22 16 15 15 12 12 13 17 12 10 11 9 5 7
13 14 11 11 11 10 10 9 12 14 15 14 14 14 15 15 17 21 21 17 16 17 18 17 16 14 17 19 22 22 21 19 22 16 17 16 16 15 12 10 12 11 13
12 13 12 11 12 10 10 10 11 13 15 15 14 14 14 13 14 18 21 20 18 18 18 19 19 18 17 17 19 17 19 21 19 15 19 20 18 16 14 18 17 17 11
11 11 11 10 12 10 10 9 9 11 13 13 12 14 13 13 16 17 15 14 16 19 17 17 18 19 20 19 17 17 18 17 19 24 26 25 24 18 16 10 11 10 10
10 10 8 9 8 8 8 9 6 7 6 7 9 9 11 10 13 16 14 10 14 12 15 17 18 21 21 21 18 18 18 18 17 17 12 20 22 21 17 17 14 14 14
9 9 9 10 8 9 7 7 7 7 8 9 7 5 6 10 12 21 17 10 10 11 11 12 13 17 23 22 21 17 18 16 18 17 17 16 16 18 17 16 21 17 15
10 10 11 11 9 9 10 9 11 10 10 10 10 8 8 10 13 16 17 10 13 9 11 9 9 13 17 20 19 24 22 15 14 14 13 12 14 14 16 18 22 22 18
10 11 11 11 12 11 13 13 10 11 10 10 8 8 9 10 10 19 19 19 12 8 7 10 15 15 15 12 17 19 12 9 11 14 14 14 15 14 17 18 20 22 21
11 10 11 11 11 12 10 11 11 10 9 9 10 10 8 9 11 11 10 10 13 10 8 9 8 11 9 9 7 9 9 10 12 14 14 14 13 13 14 15 15 14 13
12 12 11 9 12 10 10 10 10 11 12 9 8 7 9 10 12 16 13 9 10 10 9 6 7 7 9 9 10 10 10 10 12 13 15 14 15 15 14 11 11 9 9
11 10 10 9 9 9 8 7 13 13 15 18 16 13 6 13 20 24 21 17 23 18 7 7 7 8 8 8 9 9 10 12 13 13 14 14 15 14 12 9 9 8 9
11 10 9 10 9 9 9 9 9 8 9 15 18 19 21 20 23 24 23 18 19 15 11 10 9 9 9 9 9 9 8 8 10 8 8 10 9 8 7 6 6 3 3
9 10 7 8 8 8 8 8 7 8 9 10 14 16 19 20 20 22 22 13 13 14 11 10 10 10 10 10 10 9 9 9 8 7 7 7 6 3 3 4 4 3 4
8 6 6 5 7 8 7 7 7 8 8 8 9 11 14 18 18 20 20 11 10 9 10 10 10 10 9 9 8 8 9 9 9 8 8 7 6 5 7 7 7 8 8
5 10 10 8 8 8 8 9 9 9 10 10 9 10 11 11 12 12 11 10 9 9 9 9 9 9 10 10 9 9 8 8 8 6 5 5 6 6 6 5 5 6 5
4 5 11 9 9 8 8 9 7 6 6 6 7 9 14 9 9 10 10 10 10 9 10 9 9 9 9 9 9 8 8 8 7 7 6 6 6 5 5 6 6 7 6
3 6 6 6 5 6 6 6 6 6 6 7 6 7 11 7 8 8 9 10 9 9 8 9 9 9 9 9 9 9 9 8 8 7 7 6 6 6 6 7 7 7 8
4 5 5 6 6 5 5 5 5 5 5 6 6 6 7 7 7 7 8 9 9 9 8 8 9 9 10 9 9 9 9 9 8 7 7 7 7 7 7 8 9 10 10
3 3 4 3 4 4 4 4 4 5 5 4 5 6 6 6 7 7 6 6 8 8 8 8 9 12 11 10 9 9 8 8 7 8 9 8 9 9 9 10 11 12 11
2 2 2 2 2 2 3 3 3 3 3 3 3 3 4 5 6 6 5 6 6 7 8 8 8 12 14 15 14 14 13 14 11 9 8 10 12 13 10 9 10 11 11
4 3 3 2 3 2 2 2 3 3 3 3 3 2 2 4 5 4 4 6 6 6 8 6 9 13 13 11 12 13 12 12 11 11 8 8 9 8 8 10 13 9 11
Wind_Direction
4 0 352 336 324 217 208 221 217 210 194 198 202 204 201 203 203 205 213 208 209 216 218 224 223 228 234 227 222 223 223 215 240 248 228 210 198 209 207 211 212 211 215
352 349 328 331 330 336 236 210 224 225 204 200 202 204 204 204 206 208 214 208 211 216 223 220 232 221 229 235 230 228 226 220 228 248 210 213 207 209 215 206 213 215 216
339 335 320 333 324 320 327 263 222 229 224 206 201 205 208 207 205 209 213 217 216 220 223 223 231 225 231 226 228 235 234 235 229 238 248 198 206 181 183 225 205 218 215
331 321 316 318 310 299 298 301 265 233 228 217 211 212 211 211 210 213 217 220 223 224 226 225 230 226 230 226 226 227 230 231 231 235 238 217 201 199 196 202 223 211 225
322 314 304 297 288 284 282 282 297 247 239 232 217 219 222 215 214 216 219 222 224 227 227 227 231 229 229 229 227 229 228 230 230 230 237 231 213 184 206 193 223 212 229
304 296 290 287 287 283 274 264 279 270 238 233 228 219 218 221 213 214 221 226 229 229 231 232 234 230 231 226 224 233 221 220 228 228 230 230 236 226 223 209 207 185 247
293 297 291 290 289 296 295 289 288 266 241 234 228 224 223 227 216 216 214 224 228 231 230 233 236 235 231 233 230 235 235 230 224 226 232 227 231 227 223 221 209 211 227
295 293 298 299 292 289 282 279 281 272 236 229 230 227 229 232 219 216 216 222 230 232 232 235 236 238 236 231 237 231 232 234 234 233 232 236 238 237 211 208 219 229 246
312 300 297 292 287 286 284 279 284 289 243 228 223 225 228 238 236 229 221 231 237 240 238 234 233 236 235 227 233 235 240 239 234 231 238 239 243 239 222 213 214 210 230
317 308 310 307 312 303 311 288 288 298 274 240 233 224 234 250 256 244 220 229 236 242 244 244 227 233 233 227 224 233 239 241 243 245 232 239 242 243 229 216 217 217 228
331 357 355 9 14 3 352 3 351 350 27 24 12 2 15 21 10 17 343 257 240 243 244 245 243 227 236 238 222 233 237 239 242 244 246 240 230 232 233 223 223 224 218
360 18 18 31 23 27 25 21 25 24 32 32 22 15 17 11 14 8 359 4 333 306 278 254 250 241 236 238 249 246 247 240 241 249 251 243 237 231 229 224 221 225 227
10 24 27 28 35 33 40 34 32 31 34 29 27 17 5 357 358 355 347 338 336 312 285 281 297 301 291 271 247 248 250 252 256 260 253 246 244 241 232 231 227 223 227
27 25 26 31 36 39 38 46 39 32 37 28 24 25 2 4 348 354 344 343 339 324 312 301 282 270 272 269 281 273 265 259 258 260 259 257 254 243 237 230 223 213 212
23 25 24 29 36 35 46 43 44 37 33 35 22 13 13 6 354 350 354 356 342 316 308 315 332 322 309 291 278 269 263 259 258 258 260 259 261 254 242 215 210 200 206
25 22 19 24 27 32 35 38 52 51 37 31 29 28 22 10 6 11 5 3 4 355 20 9 359 354 347 336 330 320 301 274 262 258 260 257 255 245 214 201 193 184 189
27 17 18 23 22 24 26 27 22 20 38 36 24 18 18 12 13 13 11 10 15 22 21 5 358 351 341 338 335 331 323 316 304 274 269 270 251 220 180 173 164 178 114
25 24 22 23 24 20 20 22 21 20 14 11 15 15 12 12 13 13 12 15 19 21 13 360 352 347 344 340 339 337 334 336 346 355 358 355 3 37 95 106 88 95 118
29 18 13 30 32 29 24 20 17 24 24 15 7 14 9 9 14 18 19 26 16 12 3 355 349 343 341 340 339 338 337 342 346 2 5 1 14 26 45 66 70 65 77
28 34 39 39 36 33 29 26 27 26 26 22 17 10 358 3 17 14 16 13 14 5 357 353 346 340 341 343 341 344 345 353 349 348 353 7 19 31 48 56 69 74 73
13 29 39 41 37 29 31 30 20 19 19 23 19 10 5 14 8 10 8 12 6 3 355 350 344 341 340 343 342 349 347 352 353 356 0 10 20 42 41 56 66 76 90
11 37 32 22 18 28 24 23 6 9 8 15 10 10 9 18 11 5 7 7 5 3 349 346 347 348 345 345 346 350 354 4 4 9 11 17 30 44 57 68 76 80 81
25 31 20 30 24 11 5 354 356 1 6 3 2 1 6 6 11 4 1 358 0 2 356 350 352 351 350 347 351 354 357 3 7 13 27 31 38 50 55 64 69 73 76
13 18 13 353 4 0 355 353 351 351 349 357 354 355 2 356 1 352 350 350 2 2 4 353 357 358 355 356 352 354 1 5 11 19 31 47 46 45 55 62 63 70 75
304 341 352 334 339 312 331 339 335 335 329 321 335 352 352 345 354 341 333 356 353 1 357 354 355 357 6 357 360 1 5 13 23 21 30 44 54 56 61 63 69 70 73
228 235 253 279 298 308 298 318 312 305 321 335 332 311 327 343 339 330 344 353 355 354 353 353 353 357 359 359 357 2 9 16 25 22 36 46 51 54 59 67 69 72 75